[[{"header":{"parameterUnit":"m.s-1","parameterCategory":1,"la1":30.2991,"la2":30.254,"lo1":-89.0895,"lo2":-89.0444,"dy":0.0017,"dx":0.0017,"nx":28,"ny":28,"refTime":"2024-07-17T03:00:00:Z","depth":0,"parameterNumber":2,"parameterNumberName":"U-component_of_WINDS"},"data":[0,0,0,0,0,0,0,0,0,0,0,0,0,0,0,0,0,0,0,0,0,0,0,0,0,0,0,0,0,0,0,0,0,0,0,0,0,0,0,0,0,0,0,0,0,0,0,0,0,0,0,0,0,0,0,0,0,0,0.901,0.9011,0,0.9093,0.9094,0.9095,0.9133,0.9133,0.9133,0.9133,0.9221,0.9224,0.9226,0,0,0,0,0,0,0,0,0,0,0,0,0,0.8887,0.8889,0.901,0.9011,0.9012,0.9093,0.9094,0.9096,0.9133,0.9133,0.9133,0.9133,0.9221,0.9223,0.9226,0,0,0,0,0,0,0,0,0,0,0,0,0,0.8953,0.889,0.901,0.9041,0.9044,0.9093,0.9095,0.9096,0.9133,0.9133,0.9133,0.9133,0.922,0.9223,0.9227,0.9252,0,0,0.9238,0.924,0,0,0,0,0,0,0,0,0.8949,0.8957,0.9035,0.9039,0.9043,0.9103,0.9084,0.9149,0.9133,0.9099,0.9133,0.9133,0.9182,0.9189,0.9205,0.9257,0.926,0.9238,0.9241,0.9242,0.9243,0,0,0,0,0,0,0,0.8944,0.8954,0.9043,0.9036,0.9041,0.9051,0.9061,0.9096,0.9141,0.9102,0.9105,0.9114,0.9184,0.9201,0.9207,0.9262,0.9238,0.9241,0.9244,0.9245,0.9339,0.9339,0,0,0,0,0,0,0.8934,0.895,0.9041,0.9046,0.8994,0.9054,0.9064,0.9084,0.914,0.9149,0.9114,0.9116,0.9195,0.9203,0.9211,0.9245,0.9242,0.9246,0.9248,0.9339,0.9339,0.9339,0,0,0,0,0,0,0.8932,0.8942,0.9037,0.8999,0.9012,0.9056,0.9078,0.9085,0.9102,0.915,0.9158,0.9123,0.9195,0.9205,0.9242,0.9248,0.9247,0.9251,0.9338,0.9339,0.9339,0.9312,0,0,0,0,0,0,0.8928,0.8941,0.895,0.8998,0.9013,0.9066,0.9078,0.9087,0.9108,0.9111,0.916,0.9168,0.9196,0.9236,0.9245,0.9253,0.9253,0.9338,0.9339,0.9339,0.9313,0.9312,0.9311,0,0,0,0,0,0.8923,0.894,0.895,0.8961,0.9026,0.9066,0.9075,0.9105,0.9109,0.9119,0.9149,0.9167,0.9246,0.9239,0.925,0.9259,0.9338,0.9339,0.9339,0.9313,0.9312,0.9311,0,0,0,0,0,0,0.8892,0.8947,0.8959,0.8992,0.9024,0.9072,0.9086,0.9103,0.9136,0.9137,0.9174,0.9185,0.9218,0.9243,0.9234,0.9287,0.9294,0.9296,0.927,0.9269,0.9268,0.9262,0.9256,0,0,0,0,0,0.8889,0.8916,0.8963,0.8987,0.9002,0.9041,0.906,0.9081,0.9116,0.913,0.9163,0.9198,0.9231,0.9251,0.9284,0.9317,0.9328,0.9328,0.9327,0.9326,0.9329,0.9348,0.9349,0.9342,0.9342,0.9342,0,0,0.8883,0.8916,0.8931,0.8982,0.9009,0.9037,0.9053,0.9082,0.9103,0.9135,0.9171,0.9196,0.9238,0.9272,0.9289,0.9293,0.9333,0.9327,0.9326,0.9329,0.9349,0.935,0.935,0.9342,0.9342,0.9342,0,0,0.8886,0.8914,0.8937,0.8964,0.9005,0.9031,0.9036,0.9083,0.91,0.9137,0.9161,0.9188,0.9243,0.9272,0.9293,0.9307,0.9325,0.9317,0.9312,0.9331,0.9332,0.9332,0.9338,0.9339,0.9319,0.9319,0.9319,0,0.8874,0.8916,0.8947,0.8975,0.8997,0.9026,0.905,0.9075,0.9125,0.914,0.9144,0.9214,0.9244,0.9286,0.9289,0.9305,0.9314,0.9312,0.9329,0.933,0.9331,0.9337,0.9338,0.9318,0.9318,0.9318,0.9318,0,0.8899,0.8928,0.8943,0.8989,0.9012,0.9038,0.9074,0.9095,0.9113,0.9139,0.9176,0.9213,0.9253,0.9265,0.9284,0.9309,0.9311,0.9321,0.9328,0.933,0.9336,0.9338,0.9316,0.9317,0.9317,0.9317,0,0,0.8886,0.8948,0.8953,0.8975,0.9022,0.9046,0.9073,0.9112,0.9129,0.9163,0.9187,0.9233,0.9243,0.9268,0.929,0.9307,0.9316,0.9315,0.9317,0.9314,0.9347,0.9339,0.9341,0.9328,0.9328,0.9329,0.9344,0,0.8896,0.8945,0.8974,0.9012,0.904,0.9068,0.9092,0.9125,0.9149,0.9177,0.9206,0.9238,0.9248,0.9263,0.928,0.9311,0.9323,0.931,0.9352,0.9353,0.9341,0.9344,0.9336,0.9348,0.9346,0.9347,0.9347,0,0.8914,0.8946,0.8986,0.9031,0.9044,0.9065,0.9103,0.9129,0.9166,0.9183,0.921,0.9233,0.9264,0.9268,0.9313,0.9303,0.9322,0.934,0.9341,0.9347,0.935,0.935,0.9353,0.9355,0.9351,0.9351,0.935,0,0.89,0.8953,0.8985,0.9002,0.9055,0.9069,0.9092,0.9129,0.915,0.9184,0.9199,0.9236,0.9256,0.9285,0.9317,0.9317,0.9359,0.9365,0.9374,0.9374,0.9382,0.9381,0.9388,0.9394,0.9394,0.9394,0.9393,0,0.8909,0.8932,0.8979,0.8998,0.9026,0.906,0.9087,0.9112,0.9145,0.917,0.9197,0.9221,0.9262,0.9291,0.9316,0.9349,0.9358,0.9374,0.938,0.9371,0.9369,0.9384,0.9385,0.9394,0.9394,0.9394,0.9394,0,0.8898,0.893,0.8966,0.9013,0.9025,0.9043,0.9084,0.9104,0.913,0.9162,0.9172,0.9213,0.9248,0.9283,0.9331,0.9348,0.9381,0.939,0.9368,0.9372,0.9379,0.9378,0.9397,0.9401,0.9402,0.9402,0.9402,0,0.8901,0.892,0.8968,0.8987,0.9009,0.9038,0.906,0.9094,0.9116,0.916,0.9175,0.9212,0.9244,0.9299,0.9334,0.9371,0.9381,0.9385,0.9387,0.9378,0.9382,0.938,0.9383,0.9384,0.9384,0.9384,0.9384,0,0.8904,0.8919,0.8949,0.8984,0.9009,0.9039,0.907,0.9084,0.9124,0.9148,0.9184,0.9208,0.9257,0.9293,0.9334,0.9359,0.9378,0.9383,0.9387,0.9378,0.9365,0.9373,0.9366,0.9382,0.9383,0.9383,0.9383,0.9383,0.8901,0.8919,0.8955,0.8988,0.9015,0.9043,0.9065,0.9093,0.9123,0.9165,0.9183,0.9219,0.9257,0.9314,0.9338,0.9368,0.9373,0.9379,0.938,0.9381,0.938,0.936,0.9376,0.9376,0.9376,0.9376,0.9376,0,0.8905,0.893,0.8959,0.9001,0.9027,0.9042,0.9077,0.9098,0.913,0.9163,0.9193,0.9234,0.927,0.9308,0.9346,0.9363,0.9373,0.9372,0.9371,0.9376,0.9373,0.9365,0.9363,0.9363,0.9363,0.9363,0.9363,0.9363,0.891,0.8942,0.8961,0.9006,0.9032,0.9067,0.9086,0.9112,0.9139,0.9183,0.9213,0.9237,0.9272,0.9313,0.9347,0.9357,0.9371,0.9367,0.938,0.9376,0.9377,0.9378,0.9371,0.937,0.937,0.9381,0.9381,0.9381]},{"header":{"parameterUnit":"m.s-1","parameterCategory":1,"la1":30.2991,"la2":30.254,"lo1":-89.0895,"lo2":-89.0444,"dy":0.0017,"dx":0.0017,"nx":28,"ny":28,"refTime":"2024-07-17T03:00:00:Z","depth":0,"parameterNumber":3,"parameterNumberName":"V-component_of_WINDS"},"data":[0,0,0,0,0,0,0,0,0,0,0,0,0,0,0,0,0,0,0,0,0,0,0,0,0,0,0,0,0,0,0,0,0,0,0,0,0,0,0,0,0,0,0,0,0,0,0,0,0,0,0,0,0,0,0,0,0,0,2.1473,2.1473,0,2.1481,2.1481,2.1481,2.1492,2.1493,2.1493,2.1493,2.1498,2.1498,2.1498,0,0,0,0,0,0,0,0,0,0,0,0,0,2.1463,2.1463,2.1473,2.1473,2.1474,2.1481,2.1481,2.1481,2.1492,2.1493,2.1493,2.1493,2.1498,2.1498,2.1498,0,0,0,0,0,0,0,0,0,0,0,0,0,2.1469,2.1463,2.1473,2.148,2.1481,2.1481,2.1481,2.1481,2.1492,2.1493,2.1493,2.1493,2.1498,2.1498,2.1498,2.1492,0,0,2.1498,2.1498,0,0,0,0,0,0,0,0,2.1468,2.1469,2.1479,2.148,2.148,2.1486,2.148,2.1485,2.1492,2.1488,2.1493,2.1493,2.1494,2.1494,2.1495,2.1492,2.1492,2.1498,2.1498,2.1498,2.1498,0,0,0,0,0,0,0,2.1468,2.1469,2.1476,2.1479,2.148,2.1481,2.1482,2.1481,2.1489,2.1488,2.1489,2.149,2.1494,2.1495,2.1495,2.1492,2.1498,2.1498,2.1498,2.1498,2.1481,2.1481,0,0,0,0,0,0,2.1467,2.1468,2.1476,2.1477,2.1475,2.1481,2.1482,2.1484,2.1489,2.149,2.149,2.149,2.1495,2.1495,2.1495,2.1486,2.1498,2.1498,2.1498,2.1482,2.1481,2.1481,0,0,0,0,0,0,2.1467,2.1468,2.1476,2.1473,2.1474,2.1481,2.1483,2.1484,2.1485,2.149,2.1491,2.1489,2.1495,2.1495,2.1492,2.1487,2.1498,2.1498,2.1482,2.1481,2.1481,2.1469,0,0,0,0,0,0,2.1467,2.1468,2.1467,2.1473,2.1474,2.1474,2.1482,2.1484,2.1485,2.1486,2.149,2.1491,2.1495,2.1492,2.1492,2.1487,2.1498,2.1483,2.1482,2.1481,2.147,2.1468,2.1467,0,0,0,0,0,2.1466,2.1463,2.1467,2.1468,2.1473,2.1474,2.1474,2.148,2.1484,2.1482,2.1485,2.1491,2.1487,2.1492,2.1492,2.1486,2.1483,2.1482,2.1481,2.1471,2.1469,2.1467,0,0,0,0,0,0,2.1457,2.1464,2.1468,2.1468,2.147,2.1476,2.1474,2.1478,2.1479,2.148,2.1486,2.1487,2.1482,2.1484,2.1489,2.1479,2.1486,2.1485,2.1478,2.1476,2.1474,2.1473,2.1498,0,0,0,0,0,2.1454,2.1455,2.1462,2.146,2.1461,2.1467,2.1468,2.1472,2.1474,2.1475,2.1478,2.1479,2.1478,2.1477,2.1476,2.147,2.147,2.1466,2.1464,2.1463,2.1462,2.1456,2.1454,2.1478,2.1478,2.1478,0,0,2.145,2.1454,2.1455,2.1458,2.1461,2.146,2.1468,2.1467,2.1466,2.1475,2.1471,2.1473,2.1474,2.1469,2.1467,2.147,2.1455,2.1462,2.1461,2.146,2.1455,2.1452,2.145,2.1477,2.1477,2.1477,0,0,2.1441,2.1445,2.1443,2.1445,2.1448,2.1452,2.1451,2.1456,2.1457,2.1454,2.1459,2.1457,2.1456,2.1456,2.1455,2.1443,2.1447,2.1442,2.1433,2.1427,2.1425,2.1424,2.1417,2.1415,2.1441,2.1441,2.1441,0,2.1435,2.1435,2.1442,2.144,2.144,2.1448,2.1444,2.1445,2.1448,2.1447,2.1451,2.1447,2.1449,2.1442,2.1439,2.1439,2.1436,2.1442,2.1425,2.1424,2.1422,2.1416,2.1413,2.144,2.1441,2.1441,2.1441,0,2.1426,2.1426,2.1423,2.1426,2.1426,2.1423,2.1427,2.1426,2.1429,2.1431,2.1426,2.1428,2.1427,2.1425,2.1429,2.1418,2.142,2.1424,2.1431,2.1419,2.1413,2.1411,2.1439,2.144,2.144,2.144,0,0,2.1414,2.1417,2.1416,2.1416,2.1418,2.1418,2.1414,2.1413,2.141,2.1411,2.1407,2.1404,2.1407,2.1407,2.141,2.1404,2.1391,2.1409,2.1409,2.1404,2.1376,2.1372,2.1369,2.1394,2.1393,2.1393,2.1375,0,2.1404,2.14,2.1404,2.1398,2.1396,2.1401,2.1397,2.1397,2.1398,2.1395,2.1396,2.1393,2.1399,2.1398,2.1393,2.1394,2.1385,2.1395,2.1387,2.1387,2.1386,2.1366,2.1363,2.1346,2.1373,2.1373,2.1373,0,2.1394,2.1393,2.1387,2.1387,2.1386,2.1383,2.1381,2.1379,2.1377,2.1378,2.1376,2.1379,2.1373,2.138,2.137,2.1377,2.1373,2.1373,2.1372,2.1371,2.1379,2.1363,2.1342,2.1338,2.1369,2.137,2.137,0,2.1383,2.1381,2.1376,2.1376,2.1376,2.1373,2.1373,2.1372,2.137,2.1367,2.1365,2.1362,2.1359,2.1355,2.1356,2.1362,2.1345,2.1353,2.1344,2.1344,2.134,2.134,2.1316,2.134,2.134,2.134,2.134,0,2.1372,2.1368,2.1371,2.1368,2.1362,2.1365,2.1358,2.1358,2.1357,2.1352,2.1356,2.1351,2.1353,2.1348,2.1348,2.1338,2.1338,2.1336,2.1336,2.1336,2.1336,2.1333,2.1334,2.1339,2.134,2.134,2.134,0,2.136,2.1362,2.1357,2.1357,2.1356,2.1352,2.1351,2.1347,2.1347,2.1341,2.1339,2.1339,2.1333,2.1333,2.1326,2.1326,2.1313,2.1315,2.1314,2.1314,2.1304,2.1304,2.1277,2.1272,2.13,2.13,2.1299,0,2.1353,2.1349,2.1348,2.1346,2.1345,2.1341,2.1338,2.134,2.1337,2.1333,2.1328,2.1322,2.1317,2.1306,2.1304,2.1297,2.1298,2.1289,2.1298,2.1296,2.1296,2.1296,2.1294,2.1287,2.1287,2.1287,2.1287,0,2.1339,2.134,2.1337,2.1332,2.1329,2.1326,2.1323,2.132,2.1321,2.1317,2.131,2.1306,2.1297,2.129,2.1283,2.1281,2.1283,2.1284,2.1281,2.128,2.1278,2.1277,2.1308,2.1284,2.1285,2.1285,2.1285,2.1285,2.1329,2.1324,2.1322,2.1317,2.1315,2.1311,2.1306,2.1305,2.13,2.1293,2.1294,2.1286,2.1281,2.1271,2.1268,2.126,2.1263,2.126,2.1259,2.1257,2.1255,2.128,2.1259,2.1259,2.1259,2.1259,2.1259,0,2.1314,2.1312,2.1307,2.1303,2.1298,2.13,2.1296,2.1291,2.1284,2.128,2.1274,2.1264,2.1256,2.1253,2.1244,2.1238,2.1238,2.1235,2.1236,2.1234,2.1254,2.1257,2.1235,2.1235,2.1235,2.1235,2.1235,2.1235,2.1306,2.1298,2.1297,2.1287,2.1285,2.1277,2.1274,2.1269,2.1265,2.1254,2.1248,2.1245,2.124,2.1231,2.1222,2.1221,2.1217,2.1213,2.1212,2.1231,2.1233,2.1236,2.1238,2.1213,2.1213,2.1193,2.1193,2.1192]}]]